Farmington, MO

3:21 AM CDT on September 20, 2019 (GMT -0500)
Farmington Regional

Weather History for KFAM - August, 2019

Change the Weather History Date:

Sunday, August 25, 2019

  Actual Average Record
Temperature  
Mean Temperature 70 °F -  
Max Temperature 77 °F 84 °F 98 °F (1998)
Min Temperature 64 °F 63 °F 51 °F (2015)
Cooling Degree Days 4    
Growing Degree Days 20 (Base 50)    
Moisture  
Dew Point 67 °F    
Average Humidity 94    
Maximum Humidity 100    
Minimum Humidity 85    
Precipitation  
Precipitation 0.00 in - - ()
Sea Level Pressure  
Sea Level Pressure 29.98 in    
Wind  
Wind Speed 3 mph ()    
Max Wind Speed 7 mph    
Max Gust Speed -    
Visibility 9.5 miles    
Events Rain    
Averages and records for this station are not official NWS values.
T = Trace of Precipitation, MM = Missing Value Source: Averaged Metar Reports

Daily Weather History Graph

Daily Weather History Graph

Search for Another Location

Airport or City:

Astronomy

Aug. 25, 2019 Rise Set
Actual Time 6:25 AM CDT 7:41 PM CDT
Civil Twilight 5:58 AM CDT 8:08 PM CDT
Nautical Twilight 5:25 AM CDT 8:41 PM CDT
Astronomical Twilight 4:51 AM CDT 9:14 PM CDT
Moon 1:03 AM CDT (8/25) 3:58 PM CDT (8/25)
Length of Visible Light 14h 10m
Length of Day
13h 15m
Waning Crescent, 29% of the Moon is Illuminated
Aug 25
Waning Crescent
Aug 30
New
Sep 5
First Quarter
Sep 13
Full
Sep 21
Last Quarter

Hourly Weather History & Observations

Time (CDT) Temp. Dew Point Humidity Pressure Visibility Wind Dir Wind Speed Gust Speed Precip Events Conditions
12:56 AM 66.9 °F 63.0 °F 87% 30.09 in 10.0 mi East 3.5 mph - 0.00 in Rain Light Rain
1:56 AM 66.0 °F 62.1 °F 87% 30.07 in 10.0 mi East 4.6 mph - 0.00 in Rain Light Rain
2:56 AM 66.0 °F 63.0 °F 90% 30.06 in 10.0 mi East 3.5 mph - 0.00 in   Overcast
3:56 AM 64.0 °F 63.0 °F 96% 30.05 in 10.0 mi Calm Calm - N/A Rain Light Rain
4:40 AM 64.4 °F 62.6 °F 94% 30.03 in 10.0 mi Calm Calm - N/A Rain Light Rain
4:56 AM 64.0 °F 63.0 °F 96% 30.03 in 10.0 mi SE 5.8 mph - N/A Rain Light Rain
5:11 AM 64.4 °F 62.6 °F 94% 30.03 in 10.0 mi SE 3.5 mph - N/A Rain Light Rain
5:27 AM 64.4 °F 62.6 °F 94% 30.03 in 10.0 mi Calm Calm - N/A Rain Light Rain
5:48 AM 64.4 °F 62.6 °F 94% 30.02 in 10.0 mi Calm Calm - N/A Rain Light Rain
5:56 AM 64.0 °F 63.0 °F 96% 30.04 in 10.0 mi Calm Calm - N/A Rain Light Rain
6:03 AM 64.4 °F 62.6 °F 94% 30.02 in 10.0 mi Calm Calm - N/A Rain Light Rain
6:56 AM 64.0 °F 63.0 °F 96% 30.03 in 10.0 mi Calm Calm - N/A Rain Light Rain
7:34 AM 64.4 °F 62.6 °F 94% 30.01 in 10.0 mi Calm Calm - N/A Rain Rain
7:56 AM 64.0 °F 63.0 °F 96% 30.03 in 10.0 mi East 3.5 mph - N/A Rain Light Rain
8:23 AM 64.4 °F 64.4 °F 100% 30.01 in 10.0 mi East 4.6 mph - N/A Rain Light Rain
8:56 AM 64.9 °F 64.0 °F 97% 30.02 in 10.0 mi East 5.8 mph - N/A   Overcast
9:34 AM 66.2 °F 64.4 °F 94% 30.01 in 10.0 mi Variable 3.5 mph - N/A   Overcast
9:52 AM 66.2 °F 64.4 °F 94% 30.01 in 2.5 mi ESE 4.6 mph - N/A Rain Heavy Rain
9:56 AM 66.0 °F 64.9 °F 96% 30.02 in 2.0 mi Calm Calm - N/A Rain Heavy Rain
10:01 AM 66.2 °F 64.4 °F 94% 30.01 in 4.0 mi Calm Calm - N/A Rain Rain
10:18 AM 66.2 °F 66.2 °F 100% 30.01 in 10.0 mi Calm Calm - N/A Rain Light Rain
10:32 AM 68.0 °F 66.2 °F 94% 30.01 in 10.0 mi SSE 3.5 mph - N/A   Overcast
10:56 AM 69.1 °F 66.9 °F 93% 30.02 in 10.0 mi SE 3.5 mph - N/A   Overcast
11:45 AM 71.6 °F 69.8 °F 94% 30.00 in 10.0 mi ESE 5.8 mph - N/A   Overcast
11:56 AM 72.0 °F 69.1 °F 91% 30.01 in 10.0 mi East 3.5 mph - N/A   Overcast
12:56 PM 75.0 °F 71.1 °F 87% 29.99 in 10.0 mi Variable 3.5 mph - N/A   Overcast
1:56 PM 75.0 °F 71.1 °F 87% 29.99 in 10.0 mi South 6.9 mph - N/A Rain Light Rain
2:56 PM 73.9 °F 72.0 °F 93% 29.95 in 10.0 mi SSE 5.8 mph - 0.00 in   Overcast
3:56 PM 75.9 °F 71.1 °F 85% 29.93 in 10.0 mi SSW 6.9 mph - N/A   Overcast
4:26 PM 75.2 °F 71.6 °F 89% 29.91 in 10.0 mi South 4.6 mph - N/A   Overcast
4:56 PM 75.9 °F 71.1 °F 85% 29.92 in 10.0 mi SE 5.8 mph - N/A   Overcast
5:56 PM 75.0 °F 72.0 °F 90% 29.91 in 10.0 mi SE 4.6 mph - N/A   Overcast
6:48 PM 73.4 °F 73.4 °F 100% 29.89 in 10.0 mi East 5.8 mph - 0.00 in   Overcast
6:56 PM 73.9 °F 73.0 °F 97% 29.90 in 10.0 mi East 4.6 mph - 0.00 in   Overcast
7:56 PM 73.0 °F 72.0 °F 96% 29.90 in 10.0 mi Calm Calm - N/A   Overcast
8:56 PM 73.0 °F 72.0 °F 96% 29.91 in 10.0 mi SE 6.9 mph - N/A   Mostly Cloudy
9:56 PM 72.0 °F 71.1 °F 97% 29.90 in 10.0 mi SSE 3.5 mph - N/A   Partly Cloudy
10:41 PM 71.6 °F 71.6 °F 100% 29.90 in 10.0 mi South 4.6 mph - N/A   Mostly Cloudy
10:56 PM 72.0 °F 71.1 °F 97% 29.91 in 10.0 mi South 4.6 mph - N/A   Overcast
11:41 PM 71.6 °F 71.6 °F 100% 29.88 in 10.0 mi South 5.8 mph - N/A   Overcast
11:56 PM 72.0 °F 71.1 °F 97% 29.88 in 10.0 mi SSE 6.9 mph - N/A   Mostly Cloudy